Weather History for KADF - December, 2013

Change the Weather History Date:

Friday, December 20, 2013

  Actual Average Record
Temperature  
Mean Temperature 66 °F -  
Max Temperature 71 °F - - ()
Min Temperature 61 °F - - ()
Cooling Degree Days 1    
Growing Degree Days 16 (Base 50)    
Moisture  
Dew Point 65 °F    
Average Humidity 94    
Maximum Humidity 100    
Minimum Humidity 78    
Precipitation  
Precipitation 0.60 in - - ()
Sea Level Pressure  
Sea Level Pressure 29.85 in    
Wind  
Wind Speed 6 mph (South)    
Max Wind Speed 13 mph    
Max Gust Speed -    
Visibility 6 miles    
Events Rain , Thunderstorm    
Averages and records for this station are not official NWS values.
T = Trace of Precipitation, MM = Missing Value Source: NWS Daily Summary

Daily Weather History Graph

Daily Weather History Graph

Search for Another Location

Airport or City:

Trip Planner

Search our weather history database for the weather conditions in past years. The results will help you decide how hot, cold, wet, or windy it might be!

Date:

Astronomy

Dec. 20, 2013 Rise Set
Actual Time 7:13 AM CST 5:06 PM CST
Civil Twilight 6:45 AM CST 5:34 PM CST
Nautical Twilight 6:14 AM CST 6:05 PM CST
Astronomical Twilight 5:43 AM CST 6:36 PM CST
Moon 8:20 PM CST (12/20) 9:14 AM CST (12/20)
Length of Visible Light 10h 48m
Length of Day
9h 52m
Waning Gibbous, 90% of the Moon is Illuminated
Dec 20
Waning Gibbous
Dec 25
Last Quarter
Jan 1
New
Jan 7
First Quarter
Jan 15
Full

Hourly Weather History & Observations

Time (CST) Temp. Dew Point Humidity Pressure Visibility Wind Dir Wind Speed Gust Speed Precip Events Conditions
12:56 AM 63.9 °F 57.9 °F 81% 29.91 in 10.0 mi South 3.5 mph - N/A   Overcast
1:56 AM 63.9 °F 59.0 °F 84% 29.91 in 10.0 mi South 5.8 mph - N/A   Overcast
2:56 AM 65.8 °F 61.0 °F 84% 29.92 in 10.0 mi SSW 9.2 mph - N/A   Overcast
3:56 AM 64.9 °F 61.0 °F 87% 29.92 in 10.0 mi South 8.1 mph - 0.00 in Rain Light Rain
4:45 AM 64.4 °F 60.8 °F 88% 29.86 in 10.0 mi South 9.2 mph - 0.00 in   Scattered Clouds
4:56 AM 63.9 °F 61.0 °F 90% 29.90 in 10.0 mi South 9.2 mph - 0.00 in   Scattered Clouds
5:56 AM 61.9 °F 59.9 °F 93% 29.91 in 10.0 mi South 5.8 mph - N/A   Scattered Clouds
6:56 AM 61.9 °F 61.0 °F 97% 29.93 in 10.0 mi South 5.8 mph - 0.00 in   Mostly Cloudy
7:11 AM 62.6 °F 60.8 °F 94% 29.89 in 10.0 mi South 3.5 mph - N/A   Mostly Cloudy
7:20 AM 62.6 °F 60.8 °F 94% 29.89 in 10.0 mi SSE 4.6 mph - N/A   Mostly Cloudy
7:56 AM 63.0 °F 61.9 °F 96% 29.94 in 8.0 mi South 5.8 mph - N/A   Mostly Cloudy
8:56 AM 64.9 °F 63.0 °F 93% 29.96 in 10.0 mi South 6.9 mph - N/A   Partly Cloudy
9:56 AM 66.9 °F 63.9 °F 90% 29.98 in 10.0 mi SSW 9.2 mph - N/A   Partly Cloudy
10:56 AM 70.0 °F 64.9 °F 84% 29.95 in 10.0 mi South 8.1 mph - N/A   Partly Cloudy
11:56 AM 70.9 °F 64.9 °F 81% 29.93 in 10.0 mi SSW 12.7 mph - N/A   Partly Cloudy
12:24 PM 71.6 °F 64.4 °F 78% 29.88 in 10.0 mi SSW 10.4 mph - N/A   Mostly Cloudy
12:36 PM 71.6 °F 64.4 °F 78% 29.87 in 10.0 mi SSW 9.2 mph - N/A   Scattered Clouds
12:56 PM 70.0 °F 64.9 °F 84% 29.90 in 9.0 mi South 9.2 mph - N/A   Scattered Clouds
1:56 PM 70.9 °F 65.8 °F 84% 29.88 in 6.0 mi SSW 8.1 mph - 0.01 in Rain Light Rain
1:59 PM 69.8 °F 66.2 °F 88% 29.84 in 2.0 mi SSW 9.2 mph - 0.02 in Rain Heavy Rain
2:16 PM 69.8 °F 66.2 °F 88% 29.84 in 9.0 mi South 6.9 mph - 0.02 in   Partly Cloudy
2:56 PM 68.9 °F 65.8 °F 90% 29.88 in 1.8 mi SSW 5.8 mph - 0.05 in Rain , Thunderstorm Rain
2:59 PM 68.0 °F 66.2 °F 94% 29.84 in 1.2 mi SSW 6.9 mph - 0.02 in Rain , Thunderstorm Heavy Thunderstorms and Rain
3:09 PM 68.0 °F 66.2 °F 94% 29.84 in 0.8 mi South 10.4 mph - 0.26 in Rain , Thunderstorm Heavy Thunderstorms and Rain
3:22 PM 66.2 °F 66.2 °F 100% 29.84 in 1.2 mi South 8.1 mph - 0.40 in Rain Heavy Rain
3:34 PM 66.2 °F 66.2 °F 100% 29.84 in 2.0 mi SSW 5.8 mph - 0.47 in Rain Rain
3:42 PM 66.2 °F 66.2 °F 100% 29.84 in 4.0 mi West 5.8 mph - 0.47 in Rain Light Rain
3:56 PM 66.9 °F 66.9 °F 100% 29.88 in 10.0 mi SW 4.6 mph - 0.47 in   Overcast
4:18 PM 68.0 °F 66.2 °F 94% 29.84 in 2.5 mi SSW 6.9 mph - 0.03 in Rain Rain
4:30 PM 66.2 °F 66.2 °F 100% 29.83 in 3.0 mi South 5.8 mph - 0.05 in Rain Light Rain
4:42 PM 66.2 °F 66.2 °F 100% 29.84 in 6.0 mi SSE 3.5 mph - 0.05 in   Scattered Clouds
4:56 PM 65.8 °F 65.8 °F 100% 29.87 in 4.0 mi Calm Calm - 0.05 in Rain Light Rain
5:44 PM 64.4 °F 64.4 °F 100% 29.83 in 1.8 mi Calm Calm - 0.00 in   Mostly Cloudy
5:56 PM 64.9 °F 64.9 °F 100% 29.87 in 2.5 mi Calm Calm - 0.00 in   Mostly Cloudy
6:00 PM 64.4 °F 64.4 °F 100% 29.83 in 3.0 mi Calm Calm - N/A Thunderstorm Mostly Cloudy
6:07 PM 64.4 °F 64.4 °F 100% 29.81 in 1.8 mi ENE 3.5 mph - N/A Thunderstorm Mostly Cloudy
6:10 PM 64.4 °F 64.4 °F 100% 29.82 in 1.0 mi ENE 3.5 mph - N/A Thunderstorm Mostly Cloudy
6:20 PM 64.4 °F 64.4 °F 100% 29.81 in 0.8 mi Calm Calm - 0.00 in Rain , Thunderstorm Light Thunderstorms and Rain
6:35 PM 64.4 °F 64.4 °F 100% 29.81 in 1.2 mi SSE 3.5 mph - 0.00 in Rain , Thunderstorm Light Thunderstorms and Rain
6:37 PM 64.4 °F 64.4 °F 100% 29.82 in 2.0 mi Variable 3.5 mph - 0.00 in Rain , Thunderstorm Light Thunderstorms and Rain
6:40 PM 64.4 °F 64.4 °F 100% 29.82 in 4.0 mi WNW 9.2 mph - 0.00 in Thunderstorm Mostly Cloudy
6:48 PM 66.2 °F 66.2 °F 100% 29.82 in 7.0 mi WNW 8.1 mph - 0.00 in   Mostly Cloudy
6:56 PM 66.9 °F 65.8 °F 96% 29.86 in 10.0 mi Variable 4.6 mph - 0.00 in   Mostly Cloudy
7:27 PM 66.2 °F 66.2 °F 100% 29.81 in 6.0 mi South 4.6 mph - 0.01 in Rain , Thunderstorm Light Thunderstorms and Rain
7:35 PM 66.2 °F 66.2 °F 100% 29.80 in 7.0 mi SE 3.5 mph - 0.02 in Rain Light Rain
7:43 PM 66.2 °F 66.2 °F 100% 29.80 in 5.0 mi Calm Calm - 0.02 in Rain , Thunderstorm Light Thunderstorms and Rain
7:56 PM 64.9 °F 64.9 °F 100% 29.82 in 1.0 mi ESE 4.6 mph - 0.02 in Thunderstorm Mostly Cloudy
8:04 PM 64.4 °F 64.4 °F 100% 29.79 in 1.8 mi Calm Calm - N/A Thunderstorm Mostly Cloudy
8:06 PM 64.4 °F 64.4 °F 100% 29.79 in 3.0 mi Calm Calm - N/A Thunderstorm Mostly Cloudy
8:56 PM 68.0 °F 66.9 °F 96% 29.82 in 7.0 mi South 9.2 mph - N/A Thunderstorm Overcast
9:05 PM 68.0 °F 66.2 °F 94% 29.78 in 7.0 mi South 8.1 mph - N/A Thunderstorm Overcast
9:13 PM 68.0 °F 66.2 °F 94% 29.77 in 7.0 mi South 6.9 mph - N/A   Overcast
9:22 PM 68.0 °F 66.2 °F 94% 29.77 in 8.0 mi South 8.1 mph - N/A   Overcast
9:56 PM 68.9 °F 68.0 °F 97% 29.81 in 8.0 mi South 9.2 mph - N/A   Mostly Cloudy
10:56 PM 68.9 °F 68.0 °F 97% 29.80 in 8.0 mi South 10.4 mph - N/A   Mostly Cloudy
11:41 PM 69.8 °F 68.0 °F 94% 29.74 in 9.0 mi South 10.4 mph - N/A   Mostly Cloudy
11:56 PM 68.9 °F 68.0 °F 97% 29.77 in 9.0 mi South 6.9 mph - N/A   Mostly Cloudy